TimeAKST,TemperatureF,Dew PointF,Humidity,Sea Level PressureIn,VisibilityMPH,Wind Direction,Wind SpeedMPH,Gust SpeedMPH,PrecipitationIn,Events,Conditions,WindDirDegrees,DateUTC
12:53 AM,37.9,19.9,48,29.41,10.0,ESE,8.1,-,N/A,,Overcast,120,2012-11-21 09:53:00
1:53 AM,39.0,19.9,46,29.42,10.0,ESE,9.2,-,N/A,,Overcast,110,2012-11-21 10:53:00
3:53 AM,37.9,21.0,51,29.45,10.0,North,3.5,-,N/A,,Overcast,360,2012-11-21 12:53:00
4:53 AM,39.0,24.1,55,29.47,10.0,West,5.8,-,N/A,,Overcast,270,2012-11-21 13:53:00
5:53 AM,37.9,21.9,53,29.49,10.0,East,9.2,-,N/A,,Overcast,100,2012-11-21 14:53:00
6:53 AM,37.9,21.0,51,29.51,10.0,ESE,10.4,-,N/A,,Overcast,110,2012-11-21 15:53:00
7:53 AM,37.0,23.0,57,29.54,10.0,East,11.5,21.9,N/A,,Overcast,100,2012-11-21 16:53:00
8:53 AM,37.0,25.0,62,29.57,10.0,ESE,9.2,-,N/A,,Overcast,110,2012-11-21 17:53:00
9:53 AM,37.0,27.0,67,29.59,10.0,Calm,Calm,-,N/A,,Overcast,0,2012-11-21 18:53:00
10:53 AM,37.9,27.0,65,29.61,10.0,Calm,Calm,-,N/A,,Overcast,0,2012-11-21 19:53:00
11:53 AM,37.9,28.0,68,29.63,10.0,Calm,Calm,-,N/A,,Overcast,0,2012-11-21 20:53:00
12:53 PM,39.0,27.0,62,29.65,10.0,Calm,Calm,-,N/A,,Overcast,0,2012-11-21 21:53:00
1:06 PM,39.2,26.6,61,29.65,10.0,NNW,3.5,-,N/A,,Overcast,330,2012-11-21 22:06:00
1:50 PM,39.2,26.6,61,29.67,10.0,East,8.1,-,N/A,,Overcast,100,2012-11-21 22:50:00
1:53 PM,39.0,27.0,62,29.68,10.0,East,10.4,-,N/A,,Overcast,100,2012-11-21 22:53:00
2:53 PM,39.0,28.9,67,29.69,10.0,East,5.8,-,N/A,,Mostly Cloudy,100,2012-11-21 23:53:00
3:53 PM,39.0,27.0,62,29.71,10.0,East,10.4,-,N/A,,Mostly Cloudy,90,2012-11-22 00:53:00
4:53 PM,37.0,27.0,67,29.72,10.0,ESE,16.1,23.0,N/A,,Scattered Clouds,110,2012-11-22 01:53:00
5:53 PM,37.9,26.1,62,29.73,10.0,ESE,18.4,24.2,N/A,,Scattered Clouds,110,2012-11-22 02:53:00
6:53 PM,37.9,25.0,60,29.75,10.0,ESE,17.3,24.2,N/A,,Clear,120,2012-11-22 03:53:00
7:53 PM,37.9,27.0,65,29.77,10.0,East,16.1,24.2,N/A,,Clear,100,2012-11-22 04:53:00
8:53 PM,37.9,27.0,65,29.79,10.0,ESE,18.4,25.3,N/A,,Clear,110,2012-11-22 05:53:00
9:53 PM,39.0,26.1,60,29.80,10.0,ESE,18.4,23.0,N/A,,Clear,120,2012-11-22 06:53:00
10:53 PM,39.9,27.0,60,29.80,10.0,SE,20.7,-,N/A,,Clear,130,2012-11-22 07:53:00
11:53 PM,39.9,25.0,55,29.79,10.0,ESE,24.2,32.2,N/A,,Clear,110,2012-11-22 08:53:00